Preview of NWS' New Version of Forecast
This preview is not operational and should not be used for support decisions.

Regional Weather Roundup (RWR)

Issued by National Weather Service (NWS)

                            
000
ASUS43 KBIS 251910
RWRND 

NORTH DAKOTA REGIONAL WEATHER ROUNDUP
NATIONAL WEATHER SERVICE BISMARCK ND
200 PM CDT SUN AUG 25 2019

NOTE: "FAIR" INDICATES FEW OR NO CLOUDS BELOW 12,000 FEET WITH NO
SIGNIFICANT WEATHER AND/OR OBSTRUCTIONS TO VISIBILITY.


NDZ001>003-009>011-017-252000-
NORTHWEST NORTH DAKOTA
  
CITY           SKY/WX    TMP DP  RH WIND       PRES   REMARKS
WILLISTON      MOSUNNY   82  50  32 W16G23    29.72S                  
MINOT          PTSUNNY   76  62  62 NW13      29.69F                  
$$
 
NDZ018>021-031>035-040>046-252000-
SOUTHWEST NORTH DAKOTA
  
CITY           SKY/WX    TMP DP  RH WIND       PRES   REMARKS
BISMARCK       SUNNY     82  69  64 S13       29.69F                  
DICKINSON      MOSUNNY   83  53  35 NW13G24   29.72S                  
GARRISON         N/A     80  62  54 VRB3      29.67F                  
HETTINGER ARPT MOSUNNY   83  54  36 W6        29.76S                  
$$
 
NDZ004>008-012>016-024-026-027-054-252000-
NORTHEAST NORTH DAKOTA
  
CITY           SKY/WX    TMP DP  RH WIND       PRES   REMARKS
GRAND FORKS    CLOUDY    68  62  81 S18G25    29.78S                  
GRND FRKS AFB  CLOUDY    68  65  88 S16       29.78S                  
DEVILS LAKE    CLOUDY    68  65  90 S14       29.74R                  
$$
 
NDZ022-023-025-028>030-036>039-047>053-252000-
SOUTHEAST NORTH DAKOTA
  
CITY           SKY/WX    TMP DP  RH WIND       PRES   REMARKS
FARGO          CLOUDY    66  61  84 SE16G29   29.83S                  
JAMESTOWN      CLOUDY    68  66  93 S14G26    29.75F                  
$$